Location: Newark
(13.6797°N, 8.5297°E)
Time: 03:52:40
(UTC+00:00)

Altair - Pass Details

Date: 28 January 2020
Orbit: 1502 x 1682 km, 47.2° (Epoch: 18 February)

Event Time Altitude Azimuth Distance (km) Brightness Sun altitude
Rises 12:53:02 0° 334° (NNW) 4,922 10.0 53.2°
Reaches altitude 10° 12:57:25 10° 349° (N) 3,920 9.5 52.6°
Maximum altitude 13:04:30 21° 35° (NE) 3,091 9.0 51.7°
Drops below altitude 10° 13:11:25 10° 80° (E) 3,838 9.4 50.7°
Sets 13:15:35 0° 96° (E) 4,792 9.9 50.1°
